Back to catalog

TITAN 3C TRANSTAGE DEB

AliveLEO
NORAD 2050·DEBRIS·🇺🇸 United States

Launched Oct 15, 1965 from Cape Canaveral Space Force Station

Loading…

Next Passes (next 24 hours)

TLE

FreshSource: Space-Track

Epoch: Sep 14, 2026, 15:19 UTC

1 02050U 65082JL  26257.63853357  .00000895  00000-0  20092-3 0  9998
2 02050  32.2642  79.3913 0081996 150.1762 210.3589 14.51926282171642

Track TITAN 3C TRANSTAGE DEB in real time with AllMySat

Download on the App Store